THOR ABLESTAR DEB, 145

Orbit data source: Space-Track

THOR ABLESTAR DEB, 145 is space debris in LEO originally from a launch on Thu, 29 Jun 1961 UTC launched from the Air Force Eastern Test Range (AFETR). Debris objects in space refer to the collection of defunct objects orbiting the Earth. Examples of debris include non-operational satellites, rocket bodies, and fragments generated from explosions, collisions, or faulty payload assembly.

Loading next visibility...
Identifier
145, 1961-015AF
Orbit
LEO
Country
Flag of USUS
Related business
Manufacturer
Unknown
Mission
Spacecraft
Bus & Motor
Unknown
Mass
Unknown
Launch date (UTC)
1961-06-29 (64 years ago)
Launch vehicle
Unknown
Launch site
Air Force Eastern Test Range (AFETR)
Object type
Payload
Rocket body
Debris
Shape & HBR
Unknown
Radar Cross Section
Medium (>0.1 m² and <1 m²)

Expand to show TLE details & history
Last TLE update: 10 hours ago

TLE from 10 hours ago
0 THOR ABLESTAR DEB
1 00145U 61015AF  25261.20816817  .00000234  00000-0  19759-3 0  9995
2 00145  66.9284 337.2404 0058892 142.5999 217.9209 14.03045867278556
Epoch: 2025-09-18T04:59Z
TLE epoch observation values (Epoch: 2025-09-18T04:59:45.729Z)
Latitude
-0.00002°
Longitude
-95.07321°
Altitude
919.198 km
Speed
7.376 km/s
True Right ascension
22h 28m 57s
True Declination
0° 00' 00"
Sunlit
Object was in full shadow at epoch
Visualization orbit readout
Latitude
Unknown
Longitude
Unknown
Altitude
Unknown
Speed
Unknown
Apparent Right ascension
Unknown
Apparent Declination
Unknown
Sunlit
N/A
Visualization observer readout
Local Sidereal Time
07:27:16
Azimuth
Unknown
Elevation
Unknown
Doppler factor
Unknown
Orbital elements
Apogee altitude
924.39 km
Perigee altitude
838.882 km
Semi-major axis
7,259.773 km
Eccentricity
0.00589
Inclination
66.9284°
RAAN
337.2404°
Arg. of periapsis
142.5999°
True anomaly
217.50855°
Mean anomaly
217.9209°
Eccentric anomaly
217.71449°
Mean motion
3.5088 °/min
Orbital period
102.6 mins
BSTAR
0.00019759
Loading maneuver chart data...
Computing Atmospheric mass density...

Documentation

Showing up to 5 results
|